Beach, ND

7:55 AM MDT on September 29, 2016 (GMT -0600)
Beach

Weather History for K20U - April, 2013

Change the Weather History Date:

Saturday, April 27, 2013

  Actual Average (KGDV) Record (KGDV)
Temperature  
Mean Temperature 60 °F -  
Max Temperature 75 °F 59 °F 84 °F (2001)
Min Temperature 44 °F 35 °F 21 °F (2008)
Degree Days  
Heating Degree Days 6    
Growing Degree Days 10 (Base 50)    
Moisture  
Dew Point 31 °F    
Average Humidity 34    
Maximum Humidity 61    
Minimum Humidity 17    
Precipitation  
Precipitation 0.00 in - - ()
Sea Level Pressure  
Sea Level Pressure 29.86 in    
Wind  
Wind Speed 13 mph (WSW)    
Max Wind Speed 24 mph    
Max Gust Speed 37 mph    
Visibility 10 miles    
Events      
Averages and records for this station are not official NWS values.
T = Trace of Precipitation, MM = Missing Value Source: NWS Daily Summary

Daily Weather History Graph

Daily Weather History Graph

Search for Another Location

Airport or City:

Trip Planner

Search our weather history database for the weather conditions in past years. The results will help you decide how hot, cold, wet, or windy it might be!

Date:

Astronomy

Apr. 27, 2013 Rise Set
Actual Time 5:46 AM MDT 8:01 PM MDT
Civil Twilight 5:13 AM MDT 8:34 PM MDT
Nautical Twilight 4:31 AM MDT 9:16 PM MDT
Astronomical Twilight 3:45 AM MDT 10:03 PM MDT
Moon 10:40 PM MDT (4/27) 7:01 AM MDT (4/27)
Length of Visible Light 15h 21m
Length of Day
14h 14m
Waning Gibbous, 95% of the Moon is Illuminated
Apr 27
Waning Gibbous
May 2
Last Quarter
May 9
New
May 17
First Quarter
May 24
Full

Hourly Weather History & Observations

Time (MDT) Temp. Windchill Dew Point Humidity Pressure Visibility Wind Dir Wind Speed Gust Speed Precip Events Conditions
12:15 AM 50.0 °F - 32.0 °F 50% 29.97 in 10.0 mi SW 10.4 mph - N/A   Clear
12:35 AM 48.2 °F - 32.0 °F 54% 29.97 in 10.0 mi SW 9.2 mph - N/A   Clear
12:55 AM 48.2 °F - 32.0 °F 54% 29.97 in 10.0 mi SW 10.4 mph - N/A   Clear
1:15 AM 50.0 °F - 30.2 °F 47% 29.97 in 10.0 mi SW 11.5 mph - N/A   Clear
1:35 AM 50.0 °F - 30.2 °F 47% 29.96 in 10.0 mi SW 13.8 mph - N/A   Clear
1:55 AM 50.0 °F - 30.2 °F 47% 29.95 in 10.0 mi SW 12.7 mph - N/A   Clear
2:15 AM 51.8 °F - 30.2 °F 44% 29.95 in 10.0 mi SW 13.8 mph - N/A   Clear
2:35 AM 50.0 °F - 30.2 °F 47% 29.94 in 10.0 mi SW 13.8 mph - N/A   Clear
2:55 AM 51.8 °F - 30.2 °F 44% 29.94 in 10.0 mi SW 15.0 mph - N/A   Clear
3:15 AM 50.0 °F - 30.2 °F 47% 29.95 in 10.0 mi WSW 13.8 mph - N/A   Clear
3:35 AM 48.2 °F - 32.0 °F 54% 29.95 in 10.0 mi WSW 10.4 mph - N/A   Clear
3:55 AM 46.4 °F 41.9 °F 32.0 °F 57% 29.94 in 10.0 mi WSW 9.2 mph - N/A   Clear
4:15 AM 46.4 °F 41.1 °F 32.0 °F 57% 29.94 in 10.0 mi SW 11.5 mph - N/A   Clear
5:35 AM 46.4 °F 40.7 °F 32.0 °F 57% 29.94 in 10.0 mi WSW 12.7 mph - N/A   Clear
5:55 AM 44.6 °F 38.8 °F 32.0 °F 61% 29.94 in 10.0 mi WSW 11.5 mph - N/A   Clear
6:15 AM 44.6 °F 38.4 °F 32.0 °F 61% 29.95 in 10.0 mi WSW 12.7 mph - N/A   Partly Cloudy
6:35 AM 46.4 °F 40.7 °F 32.0 °F 57% 29.95 in 10.0 mi WSW 12.7 mph - N/A   Partly Cloudy
6:55 AM 48.2 °F - 32.0 °F 54% 29.95 in 10.0 mi WSW 11.5 mph - N/A   Partly Cloudy
7:15 AM 51.8 °F - 32.0 °F 47% 29.95 in 10.0 mi WSW 11.5 mph - N/A   Clear
7:35 AM 55.4 °F - 32.0 °F 41% 29.95 in 10.0 mi WSW 15.0 mph - N/A   Clear
7:55 AM 57.2 °F - 32.0 °F 38% 29.95 in 10.0 mi WSW 17.3 mph - N/A   Clear
8:15 AM 59.0 °F - 32.0 °F 36% 29.95 in 10.0 mi West 17.3 mph 20.7 mph N/A   Clear
8:35 AM 60.8 °F - 32.0 °F 34% 29.95 in 10.0 mi West 17.3 mph 21.9 mph N/A   Clear
8:55 AM 62.6 °F - 32.0 °F 32% 29.95 in 10.0 mi West 19.6 mph 24.2 mph N/A   Clear
9:15 AM 64.4 °F - 32.0 °F 30% 29.95 in 10.0 mi West 18.4 mph - N/A   Clear
9:35 AM 62.6 °F - 32.0 °F 32% 29.94 in 10.0 mi West 18.4 mph 23.0 mph N/A   Clear
9:55 AM 64.4 °F - 32.0 °F 30% 29.94 in 10.0 mi West 16.1 mph 20.7 mph N/A   Clear
10:15 AM 66.2 °F - 32.0 °F 28% 29.93 in 10.0 mi West 13.8 mph 19.6 mph N/A   Clear
10:35 AM 64.4 °F - 32.0 °F 30% 29.93 in 10.0 mi West 13.8 mph - N/A   Clear
10:55 AM 64.4 °F - 32.0 °F 30% 29.93 in 10.0 mi West 11.5 mph - N/A   Clear
11:15 AM 66.2 °F - 32.0 °F 28% 29.92 in 10.0 mi WSW 11.5 mph - N/A   Clear
11:35 AM 68.0 °F - 32.0 °F 26% 29.92 in 10.0 mi West 10.4 mph 20.7 mph N/A   Clear
11:55 AM 69.8 °F - 32.0 °F 25% 29.91 in 10.0 mi WSW 17.3 mph 25.3 mph N/A   Clear
12:15 PM 71.6 °F - 30.2 °F 22% 29.90 in 10.0 mi West 13.8 mph 23.0 mph N/A   Clear
12:35 PM 71.6 °F - 32.0 °F 23% 29.89 in 10.0 mi West 13.8 mph 23.0 mph N/A   Clear
12:55 PM 71.6 °F - 30.2 °F 22% 29.88 in 10.0 mi West 17.3 mph 28.8 mph N/A   Clear
1:15 PM 71.6 °F - 32.0 °F 23% 29.87 in 10.0 mi WSW 19.6 mph 33.4 mph N/A   Clear
1:35 PM 71.6 °F - 30.2 °F 22% 29.86 in 10.0 mi West 20.7 mph 32.2 mph N/A   Partly Cloudy
1:55 PM 73.4 °F - 30.2 °F 20% 29.85 in 10.0 mi West 24.2 mph 36.8 mph N/A   Partly Cloudy
2:15 PM 73.4 °F - 30.2 °F 20% 29.84 in 10.0 mi West 15.0 mph 27.6 mph N/A   Clear
2:35 PM 73.4 °F - 26.6 °F 18% 29.84 in 10.0 mi West 24.2 mph 29.9 mph N/A   Partly Cloudy
2:55 PM 75.2 °F - 26.6 °F 17% 29.83 in 10.0 mi West 21.9 mph 33.4 mph N/A   Clear
3:15 PM 73.4 °F - 26.6 °F 18% 29.83 in 10.0 mi West 20.7 mph 28.8 mph N/A   Clear
3:35 PM 73.4 °F - 26.6 °F 18% 29.83 in 10.0 mi West 20.7 mph 24.2 mph N/A   Clear
3:55 PM 73.4 °F - 26.6 °F 18% 29.81 in 10.0 mi West 19.6 mph 27.6 mph N/A   Clear
4:15 PM 71.6 °F - 26.6 °F 19% 29.81 in 10.0 mi West 13.8 mph 23.0 mph N/A   Clear
4:35 PM 73.4 °F - 26.6 °F 18% 29.79 in 10.0 mi West 12.7 mph 18.4 mph N/A   Clear
4:55 PM 73.4 °F - 26.6 °F 18% 29.78 in 10.0 mi West 15.0 mph 23.0 mph N/A   Clear
5:15 PM 75.2 °F - 26.6 °F 17% 29.77 in 10.0 mi West 16.1 mph 24.2 mph N/A   Clear
5:35 PM 73.4 °F - 26.6 °F 18% 29.77 in 10.0 mi West 16.1 mph 21.9 mph N/A   Clear
5:55 PM 71.6 °F - 28.4 °F 20% 29.77 in 10.0 mi West 16.1 mph 21.9 mph N/A   Clear
6:15 PM 73.4 °F - 28.4 °F 19% 29.76 in 10.0 mi WNW 13.8 mph 20.7 mph N/A   Clear
6:35 PM 71.6 °F - 28.4 °F 20% 29.76 in 10.0 mi WNW 13.8 mph - N/A   Clear
6:55 PM 68.0 °F - 28.4 °F 23% 29.75 in 10.0 mi WNW 6.9 mph - N/A   Clear
7:15 PM 66.2 °F - 30.2 °F 26% 29.75 in 10.0 mi WNW 5.8 mph - N/A   Clear
7:35 PM 64.4 °F - 30.2 °F 28% 29.75 in 10.0 mi Calm Calm - N/A   Clear
7:55 PM 62.6 °F - 32.0 °F 32% 29.74 in 10.0 mi WSW 5.8 mph - N/A   Scattered Clouds
8:15 PM 62.6 °F - 32.0 °F 32% 29.75 in 10.0 mi WSW 9.2 mph - N/A   Mostly Cloudy
8:35 PM 60.8 °F - 32.0 °F 34% 29.76 in 10.0 mi West 9.2 mph - N/A   Mostly Cloudy
8:55 PM 60.8 °F - 32.0 °F 34% 29.76 in 10.0 mi West 9.2 mph - N/A   Mostly Cloudy
9:15 PM 60.8 °F - 32.0 °F 34% 29.76 in 10.0 mi West 10.4 mph - N/A   Mostly Cloudy
9:35 PM 62.6 °F - 32.0 °F 32% 29.75 in 10.0 mi West 10.4 mph - N/A   Overcast
9:55 PM 60.8 °F - 32.0 °F 34% 29.75 in 10.0 mi West 9.2 mph - N/A   Overcast
10:15 PM 59.0 °F - 32.0 °F 36% 29.75 in 10.0 mi WSW 10.4 mph - N/A   Mostly Cloudy
10:35 PM 57.2 °F - 32.0 °F 38% 29.75 in 10.0 mi WSW 9.2 mph - N/A   Overcast
10:55 PM 57.2 °F - 32.0 °F 38% 29.75 in 10.0 mi WSW 9.2 mph - N/A   Overcast
11:15 PM 57.2 °F - 32.0 °F 38% 29.74 in 10.0 mi WSW 10.4 mph - N/A   Overcast
11:35 PM 57.2 °F - 32.0 °F 38% 29.74 in 10.0 mi WSW 10.4 mph - N/A   Overcast
11:55 PM 55.4 °F - 32.0 °F 41% 29.74 in 10.0 mi WSW 10.4 mph - N/A   Overcast